timestamp,surface_pressure_avg,surface_temp_avg,battery_voltage,lat,long
2018-06-12 00:00:00+00:00,319.7097,5.5,13.21,47.84626,-54.09684
2018-06-12 00:10:00+00:00,312.618,5.6,13.13,47.84626,-54.09684
2018-06-12 00:20:00+00:00,305.2064,5.62,13.13,47.84626,-54.09684
2018-06-12 00:30:00+00:00,301.583,5.66,13.13,47.84626,-54.09684
2018-06-12 00:40:00+00:00,294.123,6.44,13.13,47.84626,-54.09684
2018-06-12 00:50:00+00:00,281.0164,6.7,13.13,47.84626,-54.09684
2018-06-12 01:00:00+00:00,272.7397,6.7,13.05,47.84626,-54.09684
2018-06-12 01:10:00+00:00,268.6181,6.7,12.97,47.84626,-54.09684
2018-06-12 01:20:00+00:00,256.4381,6.71,13.05,47.84626,-54.09684
2018-06-12 01:30:00+00:00,245.1231,6.79,13.05,47.84626,-54.09684
2018-06-12 01:40:00+00:00,242.4481,6.7,13.05,47.84626,-54.09684
2018-06-12 01:50:00+00:00,235.4447,6.7,13.05,47.84626,-54.09684
2018-06-12 02:00:00+00:00,225.5397,6.62,13.05,47.84626,-54.09684
2018-06-12 02:10:00+00:00,223.5115,6.6,12.97,47.84626,-54.09684
2018-06-12 02:20:00+00:00,222.6948,6.61,13.05,47.84626,-54.09684
2018-06-12 02:30:00+00:00,214.6981,6.7,13.05,47.84626,-54.09684
2018-06-12 02:40:00+00:00,206.1048,6.8,13.05,47.84626,-54.09684
2018-06-12 02:50:00+00:00,203.5481,6.79,13.05,47.84626,-54.09684
2018-06-12 03:00:00+00:00,201.7264,6.7,12.97,47.84626,-54.09684
2018-06-12 03:10:00+00:00,194.2298,6.8,12.89,47.84626,-54.09684
2018-06-12 03:20:00+00:00,191.2698,6.87,12.97,47.84626,-54.09684
2018-06-12 03:30:00+00:00,194.3232,6.89,12.97,47.84626,-54.09684
2018-06-12 03:40:00+00:00,192.8781,6.9,12.97,47.84626,-54.09684
2018-06-12 03:50:00+00:00,187.7798,6.89,13.05,47.84626,-54.09684
2018-06-12 04:00:00+00:00,188.1981,6.8,12.97,47.84626,-54.09684
2018-06-12 04:10:00+00:00,191.5314,6.6,12.89,47.84626,-54.09684
2018-06-12 04:20:00+00:00,187.6648,6.78,12.97,47.84626,-54.09684
2018-06-12 04:30:00+00:00,186.9381,6.7,12.97,47.84626,-54.09684
2018-06-12 04:40:00+00:00,193.4497,6.13,12.97,47.84626,-54.09684
2018-06-12 04:50:00+00:00,194.1198,6.49,12.97,47.84626,-54.09684
2018-06-12 05:00:00+00:00,194.6098,6.82,12.97,47.84626,-54.09684
2018-06-12 05:10:00+00:00,201.4964,6.9,12.89,47.84626,-54.09684
2018-06-12 05:20:00+00:00,203.1164,6.3,12.97,47.84626,-54.09684
2018-06-12 05:30:00+00:00,202.3031,6.67,12.97,47.84626,-54.09684
2018-06-12 05:40:00+00:00,208.9798,6.36,12.97,47.84626,-54.09684
2018-06-12 05:50:00+00:00,215.7465,6.1,12.97,47.84626,-54.09684
2018-06-12 06:00:00+00:00,215.8298,6.3,12.89,47.84626,-54.09684
2018-06-12 06:10:00+00:00,218.1815,6.0,12.81,47.84626,-54.09684
2018-06-12 06:20:00+00:00,225.0431,5.8,12.89,47.84626,-54.09684
2018-06-12 06:30:00+00:00,232.9364,5.77,12.89,47.84626,-54.09684
2018-06-12 06:40:00+00:00,238.9264,5.78,12.97,47.84626,-54.09684
2018-06-12 06:50:00+00:00,244.8614,5.77,12.97,47.84626,-54.09684
2018-06-12 07:00:00+00:00,250.0214,5.79,12.89,47.84626,-54.09684
2018-06-12 07:10:00+00:00,256.9964,5.8,12.81,47.84626,-54.09684
2018-06-12 07:20:00+00:00,264.7564,5.79,12.89,47.84626,-54.09684
2018-06-12 07:30:00+00:00,271.7447,5.6,12.89,47.84626,-54.09684
2018-06-12 07:40:00+00:00,274.608,5.41,12.89,47.84626,-54.09684
2018-06-12 07:50:00+00:00,280.3997,5.4,12.97,47.84626,-54.09684
2018-06-12 08:00:00+00:00,290.4197,5.4,12.89,47.84626,-54.09684
2018-06-12 08:10:00+00:00,301.0364,5.36,12.81,47.84626,-54.09684
2018-06-12 08:20:00+00:00,304.4496,5.4,12.89,47.84626,-54.09684
2018-06-12 08:30:00+00:00,309.798,5.48,12.97,47.84626,-54.09684
2018-06-12 08:40:00+00:00,321.5696,5.4,12.97,47.84626,-54.09684
2018-06-12 08:50:00+00:00,329.313,5.36,12.97,47.84626,-54.09684
2018-06-12 09:00:00+00:00,331.1812,5.3,12.97,47.84626,-54.09684
2018-06-12 09:10:00+00:00,336.033,5.0,12.89,47.84626,-54.09684
2018-06-12 09:20:00+00:00,340.8914,4.9,12.89,47.84626,-54.09684
2018-06-12 09:30:00+00:00,340.678,4.9,12.97,47.84626,-54.09684
2018-06-12 09:40:00+00:00,343.493,4.8,12.97,47.84626,-54.09684
2018-06-12 09:50:00+00:00,346.6512,4.8,12.97,47.84626,-54.09684
2018-06-12 10:00:00+00:00,346.8247,4.79,12.97,47.84626,-54.09684
2018-06-12 10:10:00+00:00,345.7245,4.79,12.89,47.84626,-54.09684
2018-06-12 10:20:00+00:00,346.0546,4.79,12.97,47.84626,-54.09684
2018-06-12 10:30:00+00:00,347.8947,4.8,12.97,47.84626,-54.09684
2018-06-12 10:40:00+00:00,347.0179,4.8,13.05,47.84626,-54.09684
2018-06-12 10:50:00+00:00,345.7612,4.85,13.13,47.84626,-54.09684
2018-06-12 11:00:00+00:00,341.3513,4.99,13.05,47.84626,-54.09684
2018-06-12 11:10:00+00:00,337.6512,5.0,13.05,47.84626,-54.09684
2018-06-12 11:20:00+00:00,333.2647,5.05,13.13,47.84626,-54.09684
2018-06-12 11:30:00+00:00,329.7429,5.07,13.21,47.84626,-54.09684
2018-06-12 11:40:00+00:00,323.6829,5.14,13.37,47.84626,-54.09684
2018-06-12 11:50:00+00:00,317.8147,5.19,13.44,47.84626,-54.09684
2018-06-12 12:00:00+00:00,315.8546,5.23,13.53,47.84626,-54.09684
2018-06-12 12:10:00+00:00,309.7847,5.48,13.53,47.84626,-54.09684
2018-06-12 12:20:00+00:00,301.5363,5.7,13.68,47.84626,-54.09684
2018-06-12 12:30:00+00:00,297.413,5.76,13.84,47.84626,-54.09684
2018-06-12 12:40:00+00:00,292.2747,5.8,14.0,47.84626,-54.09684
2018-06-12 12:50:00+00:00,280.828,5.93,14.08,47.84626,-54.09684
2018-06-12 13:00:00+00:00,271.4347,6.09,14.16,47.84626,-54.09684
2018-06-12 13:10:00+00:00,267.6614,5.9,14.16,47.84626,-54.09684
2018-06-12 13:20:00+00:00,259.1197,5.92,14.32,47.84626,-54.09684
2018-06-12 13:30:00+00:00,244.9597,6.16,14.4,47.84626,-54.09684
2018-06-12 13:40:00+00:00,238.9215,6.2,14.48,47.84626,-54.09684
2018-06-12 13:50:00+00:00,238.0798,6.2,14.64,47.84626,-54.09684
2018-06-12 14:00:00+00:00,228.3531,6.3,14.48,47.84626,-54.09684
2018-06-12 14:10:00+00:00,214.9264,6.32,14.32,47.84626,-54.09684
2018-06-12 14:20:00+00:00,212.9182,6.3,14.64,47.84626,-54.09684
2018-06-12 14:30:00+00:00,209.9181,6.3,14.88,47.84626,-54.09684
2018-06-12 14:40:00+00:00,199.0248,6.34,15.35,47.84626,-54.09684
2018-06-12 14:50:00+00:00,195.3998,6.38,14.64,47.84626,-54.09684
2018-06-12 15:00:00+00:00,196.5997,6.34,14.48,47.84626,-54.09684
2018-06-12 15:10:00+00:00,190.7032,6.3,14.48,47.84626,-54.09684
2018-06-12 15:20:00+00:00,185.2615,6.2,14.56,47.84626,-54.09684
2018-06-12 15:30:00+00:00,187.6081,5.62,14.72,47.84626,-54.09684
2018-06-12 15:40:00+00:00,189.5264,5.7,16.15,47.84626,-54.09684
2018-06-12 15:50:00+00:00,185.1031,5.37,14.56,47.84626,-54.09684
2018-06-12 16:00:00+00:00,183.1964,5.3,14.64,47.84626,-54.09684
2018-06-12 16:10:00+00:00,185.4932,5.39,14.48,47.84626,-54.09684
2018-06-12 16:20:00+00:00,187.4348,5.4,14.48,47.84626,-54.09684
2018-06-12 16:30:00+00:00,190.6798,5.4,14.4,47.84626,-54.09684
2018-06-12 16:40:00+00:00,191.2948,5.39,14.48,47.84626,-54.09684
2018-06-12 16:50:00+00:00,192.7331,5.3,14.56,47.84626,-54.09684
2018-06-12 17:00:00+00:00,193.3881,5.29,14.4,47.84626,-54.09684
2018-06-12 17:10:00+00:00,192.5664,5.27,14.48,47.84626,-54.09684
2018-06-12 17:20:00+00:00,196.5348,5.25,14.64,47.84626,-54.09684
2018-06-12 17:30:00+00:00,206.0931,5.2,14.48,47.84626,-54.09684
2018-06-12 17:40:00+00:00,214.9764,5.1,14.48,47.84626,-54.09684
2018-06-12 17:50:00+00:00,214.4998,4.99,14.48,47.84626,-54.09684
2018-06-12 18:00:00+00:00,217.9081,4.9,14.32,47.84626,-54.09684
2018-06-12 18:10:00+00:00,228.2731,4.8,14.24,47.84626,-54.09684
2018-06-12 18:20:00+00:00,231.0231,4.7,14.24,47.84626,-54.09684
2018-06-12 18:30:00+00:00,232.423,4.7,14.24,47.84626,-54.09684
2018-06-12 18:40:00+00:00,243.0864,4.74,14.32,47.84626,-54.09684
2018-06-12 18:50:00+00:00,251.4347,4.7,14.32,47.84626,-54.09684
2018-06-12 19:00:00+00:00,251.6331,4.7,14.24,47.84626,-54.09684
2018-06-12 19:10:00+00:00,253.5347,4.66,14.16,47.84626,-54.09684
2018-06-12 19:20:00+00:00,266.0714,4.6,14.24,47.84626,-54.09684
2018-06-12 19:30:00+00:00,277.0697,4.5,14.32,47.84626,-54.09684
2018-06-12 19:40:00+00:00,281.3114,4.5,14.32,47.84626,-54.09684
2018-06-12 19:50:00+00:00,287.153,4.49,14.32,47.84626,-54.09684
2018-06-12 20:00:00+00:00,297.2397,4.49,14.16,47.84626,-54.09684
2018-06-12 20:10:00+00:00,303.3297,4.46,14.08,47.84626,-54.09684
2018-06-12 20:20:00+00:00,308.4514,4.47,14.24,47.84626,-54.09684
2018-06-12 20:30:00+00:00,319.4064,4.49,14.16,47.84626,-54.09684
2018-06-12 20:40:00+00:00,328.983,4.47,14.24,47.84626,-54.09684
2018-06-12 20:50:00+00:00,336.2496,4.49,14.24,47.84626,-54.09684
2018-06-12 21:00:00+00:00,339.9946,4.48,14.08,47.84626,-54.09684
2018-06-12 21:10:00+00:00,345.9096,4.4,14.0,47.84626,-54.09684
2018-06-12 21:20:00+00:00,353.7346,4.4,14.0,47.84626,-54.09684
2018-06-12 21:30:00+00:00,360.2112,4.4,14.0,47.84626,-54.09684
2018-06-12 21:40:00+00:00,363.1945,4.44,14.0,47.84626,-54.09684
2018-06-12 21:50:00+00:00,364.1846,4.5,14.0,47.84626,-54.09684
2018-06-12 22:00:00+00:00,369.093,4.6,13.92,47.84626,-54.09684
2018-06-12 22:10:00+00:00,372.4163,4.69,13.84,47.84626,-54.09684
2018-06-12 22:20:00+00:00,372.653,4.78,13.84,47.84626,-54.09684
2018-06-12 22:30:00+00:00,376.0546,4.8,13.84,47.84626,-54.09684
2018-06-12 22:40:00+00:00,379.9896,4.8,13.84,47.84626,-54.09684
2018-06-12 22:50:00+00:00,382.6746,4.8,13.84,47.84626,-54.09684
2018-06-12 23:00:00+00:00,377.7695,4.8,13.68,47.84626,-54.09684
2018-06-12 23:10:00+00:00,373.0462,4.8,13.6,47.84626,-54.09684
2018-06-12 23:20:00+00:00,368.5946,4.8,13.53,47.84626,-54.09684
2018-06-12 23:30:00+00:00,365.8995,4.8,13.53,47.84626,-54.09684
2018-06-12 23:40:00+00:00,364.6162,4.8,13.44,47.84626,-54.09684
2018-06-12 23:50:00+00:00,362.4913,4.8,13.44,47.84626,-54.09684
